Regional Weather Roundup
Issued by NWS

Home | Current Version | Previous Version | Text Only | Print | Product List | Glossary Off
Versions: 1 2 3 4 5 6 7 8 9 10 11 12 13 14 15 16 17 18 19 20 21 22 23 24 25 26 27 28 29 30 31 32 33 34 35 36 37 38 39 40 41 42 43 44 45 46 47 48 49 50

000
ASUS43 KMKX 191200
RWRWI

WISCONSIN REGIONAL WEATHER ROUNDUP
NATIONAL WEATHER SERVICE MILWAUKEE/SULLIVAN WI
700 AM CDT SUN APR 19 2015

NOTE: "FAIR" INDICATES FEW OR NO CLOUDS BELOW 12,000 FEET WITH NO
SIGNIFICANT WEATHER AND/OR OBSTRUCTIONS TO VISIBILITY.

WIZ001-002-006>008-014>016-023>028-191300-
NORTHWEST WISCONSIN

CITY           SKY/WX    TMP DP  RH WIND       PRES   REMARKS
SUPERIOR ARPT  RAIN      37  36  96 NE10G17   29.82F WCI  29
ASHLAND        LGT RAIN  41  39  93 E5        29.83F
6HR MIN TEMP:  37; 6HR MAX TEMP:  41; 6HR PCP:  0.15;

HAYWARD        LGT RAIN  43  37  79 VRB6      29.80F
6HR MIN TEMP:  43; 6HR MAX TEMP:  54; 6HR PCP:  0.14;

SIREN          LGT RAIN  45  36  71 SE8       29.77S
CUMBERLAND     HVY RAIN  41  36  81 SE10G17   29.78F
RICE LAKE      HVY RAIN  44  37  75 E8        29.81F
CHETEK         DRIZZLE   46  35  67 E10       29.80F
LADYSMITH      CLOUDY    45  35  67 SE6       29.83F
6HR MIN TEMP:  44; 6HR MAX TEMP:  53; 6HR PCP:  0.06;

EAU CLAIRE     NOT AVBL
MENOMONIE      CLOUDY    46  36  68 E9        29.79F
NEW RICHMOND   LGT RAIN  44  38  79 SE9       29.77S
OSCEOLA        LGT RAIN  45  39  81 SE6       29.79F
$$

WIZ003>005-009-010-017-018-191300-
NORTH CENTRAL WISCONSIN

CITY           SKY/WX    TMP DP  RH WIND       PRES   REMARKS
MANITOWISH WTR CLOUDY    39  32  77 SE8       29.87F WCI  33
ARBOR VITAE    LGT RAIN  42  34  73 SE9       29.88S
WOODRUFF       LGT RAIN  42  34  73 SE9       29.88S
RHINELANDER    CLOUDY    45  20  36 E8        29.90F
6HR MIN TEMP:  43; 6HR MAX TEMP:  46; 6HR PCP: TRACE;

EAGLE RIVER    CLOUDY    43  20  40 SE7       29.91F
LAND O LAKES   CLOUDY    42  25  52 SE6       29.94F
PHILLIPS       CLOUDY    42  32  68 SE9       29.83F
6HR MIN TEMP:  40; 6HR MAX TEMP:  49; 6HR PCP:  0.09;

TOMAHAWK       CLOUDY    44  22  40 SE5       29.89S
MEDFORD        CLOUDY    44  28  53 E12G18    29.85F
MERRILL        CLOUDY    46  23  39 SE6       29.90R
$$

WIZ029-030-035-036-043>047-191300-
CENTRAL WISCONSIN

CITY           SKY/WX    TMP DP  RH WIND       PRES   REMARKS
WAUSAU         CLOUDY    45  25  45 SE12      29.88S
6HR MIN TEMP:  45; 6HR MAX TEMP:  48;

MOSINEE        MOCLDY    45  25  45 E13G20    29.89F
MARSHFIELD     CLOUDY    46  28  49 E10       29.85F
6HR MIN TEMP:  44; 6HR MAX TEMP:  48; 6HR PCP: TRACE;

STEVENS POINT  CLOUDY    44  26  49 E9        29.89S
WAUPACA        CLOUDY    49  30  47 E12       29.91F
WAUTOMA        NOT AVBL
WISC RAPIDS    CLOUDY    47  24  40 E8        29.88S
6HR MIN TEMP:  47; 6HR MAX TEMP:  49;

CAMP DOUGLAS   NOT AVBL
$$

WIZ011>013-019>022-031-037>040-048>050-191300-
NORTHEAST WISCONSIN

CITY           SKY/WX    TMP DP  RH WIND       PRES   REMARKS
ANTIGO         CLOUDY    42  25  52 SE21      29.92S
SHAWANO        CLOUDY    46  29  53 E6        29.96S
OCONTO         CLOUDY    44  30  59 E12       29.98S
STURGEON BAY   PTCLDY    41  28  60 E9        30.00F
6HR MIN TEMP:  41; 6HR MAX TEMP:  45;

GREEN BAY      CLOUDY    47  31  53 SE9       29.95F
6HR MIN TEMP:  42; 6HR MAX TEMP:  49;

MANITOWOC      NOT AVBL
APPLETON       CLOUDY    46  28  49 SE14G22   29.92F
CLINTONVILLE   CLOUDY    45  27  49 E9        29.93F
OSHKOSH        CLOUDY    49  30  48 SE16      29.89F
6HR MIN TEMP:  48; 6HR MAX TEMP:  51;

$$

WIZ032>034-041-042-053>061-191300-
SOUTHWEST WISCONSIN

CITY           SKY/WX    TMP DP  RH WIND       PRES   REMARKS
LA CROSSE      CLOUDY    52  34  50 E9        29.79F
6HR MIN TEMP:  50; 6HR MAX TEMP:  59; 6HR PCP: TRACE;

SPARTA         MOCLDY    47  33  57 CALM      29.83S
VIROQUA        CLOUDY    51  33  50 SE10      29.81S
BOSCOBEL       CLOUDY    53  35  50 NE3       29.82S
6HR MIN TEMP:  51; 6HR MAX TEMP:  56;

PRAIRIE DU CHI CLOUDY    54  37  52 E5        29.81S
PLATTEVILLE    CLOUDY    50  37  59 E6        29.82S
$$

WIZ056-057-062-063-064-067-068-191300-
SOUTH CENTRAL WISCONSIN

CITY           SKY/WX    TMP DP  RH WIND       PRES   REMARKS
REEDSBURG      PTCLDY    50  31  49 E7        29.84S
BARABOO/DELLS  PTCLDY    49  29  46 E7        29.85F
LONE ROCK      NOT AVBL
MINERAL POINT  CLOUDY    52  32  46 E7        29.82S
MADISON        MOCLDY    50  30  46 SE12      29.85F
6HR MIN TEMP:  49; 6HR MAX TEMP:  51;

MIDDLETON      PTCLDY    51  31  47 SE6       29.86S
WATERTOWN      PTCLDY    46  30  53 E14G20    29.87F
MONROE         PTCLDY    48  32  53 E7        29.83F
JANESVILLE     CLEAR     50  30  46 E9        29.85F
$$

WIZ051-052-058>065-066-070>072-191300-
SOUTHEAST WISCONSIN

CITY           SKY/WX    TMP DP  RH WIND       PRES   REMARKS
MILWAUKEE      MOCLDY    43  32  65 E7        29.93F
6HR MIN TEMP:  42; 6HR MAX TEMP:  48;

WAUKESHA       MOCLDY    43  28  56 E8        29.93F
MILWAUKEE/TIMM PTCLDY    45  30  57 E7        29.94F
RACINE         PTCLDY    44  32  62 E7        29.93F
6HR MIN TEMP:  43; 6HR MAX TEMP:  47;

BURLINGTON     PTCLDY    45  29  55 E6        29.89F
KENOSHA        CLEAR     44  33  65 E10       29.90F
6HR MIN TEMP:  43; 6HR MAX TEMP:  50;

FOND DU LAC    CLOUDY    48  29  47 SE14G21   29.90F
6HR MIN TEMP:  48; 6HR MAX TEMP:  52;

SHEBOYGAN      CLOUDY    44  31  60 SE5       29.96F
6HR MIN TEMP:  38; 6HR MAX TEMP:  46;

WEST BEND      MOCLDY    43  30  61 E9        29.94F
JUNEAU         PTCLDY    46  30  54 E16       29.89F
$$

LSZ147-162-191300-
LAKE SUPERIOR

STATION/POSITION TIME  TEMP    WIND        PRES    WAVE
                       AIR SEA DIR/SP/G            HT/PER
                 (UTC) (F)     (DEG/KT/KT) (MB)    (FT/S)
DEVILS ISLAND    1100   37      90/ 22/ 23 1011.8F
PORT WING        1140   38      20/ 12/ 16 1010.2F
SAXON HARBOR     1100   42        CALM     1010.8F
$$

LMZ867-665-643>646-191300-
LAKE MICHIGAN

STATION/POSITION TIME  TEMP    WIND        PRES    WAVE
                       AIR SEA DIR/SP/G            HT/PER
                 (UTC) (F)     (DEG/KT/KT) (MB)    (FT/S)
CHAMBERS ISLAND  1100   41      40/  4/  6 1016.3F
NORTHPORT PIER   1102   40     100/  9/ 14 1016.6S
SISTER BAY       1102   42     130/  9/ 13   N/A
KEWAUNEE LAKESHO 1100   40      80/  3/  5 1014.6F
SHEBOYGAN LAKESH 1100   44     130/  3/  4 1015.5F
PORT WASHINGTON  1100   45      90/  5/  7 1015.2
MILWAUKEE LAKESH 1100   43      60/  8/  9   N/A
KENOSHA   LAKESH 1100   43      60/  6/  6 1013.2F
$$

TC  - TEMPERATURE IN CELSIUS
VSB - VISIBILITY IN STATUTE MILES
WCI - WIND CHILL INDEX
HX  - HEAT INDEX



USA.gov is the U.S. government's official web portal to all federal, state and local government web resources and services.